TimeEDT,TemperatureF,Dew PointF,Humidity,Sea Level PressureIn,VisibilityMPH,Wind Direction,Wind SpeedMPH,Gust SpeedMPH,PrecipitationIn,Events,Conditions,WindDirDegrees,DateUTC
12:56 AM,37.0,23.0,57,30.13,10.0,Calm,Calm,-,N/A,,Overcast,0,2014-03-25 04:56:00
1:56 AM,34.0,26.1,73,30.13,4.0,NNW,4.6,-,0.00,Snow,Light Snow,330,2014-03-25 05:56:00
2:06 AM,33.8,26.6,75,30.12,5.0,WNW,4.6,-,0.00,Snow,Light Snow,290,2014-03-25 06:06:00
2:21 AM,33.8,26.6,75,30.11,4.0,WNW,5.8,-,0.00,Snow,Light Snow,290,2014-03-25 06:21:00
2:50 AM,32.0,28.4,87,30.10,2.5,NNW,5.8,-,0.00,Snow,Light Snow,330,2014-03-25 06:50:00
2:56 AM,32.0,28.0,85,30.11,3.0,NNW,6.9,-,0.00,Snow,Light Snow,330,2014-03-25 06:56:00
3:56 AM,30.9,28.9,92,30.08,3.0,NW,8.1,-,0.00,Snow,Light Snow,320,2014-03-25 07:56:00
4:09 AM,30.2,28.4,93,30.07,4.0,NW,6.9,-,0.00,Snow,Light Snow,310,2014-03-25 08:09:00
4:15 AM,32.0,28.4,87,30.06,3.0,NW,5.8,-,0.00,Snow,Light Snow,310,2014-03-25 08:15:00
4:49 AM,30.2,28.4,93,30.05,4.0,NNW,8.1,-,0.00,Snow,Light Snow,330,2014-03-25 08:49:00
4:56 AM,30.9,28.0,89,30.06,4.0,NNW,9.2,-,0.00,Snow,Light Snow,330,2014-03-25 08:56:00
5:09 AM,30.2,28.4,93,30.05,3.0,NW,8.1,-,0.00,Snow,Light Snow,320,2014-03-25 09:09:00
5:21 AM,30.2,28.4,93,30.04,5.0,NW,5.8,-,0.00,Snow,Light Snow,320,2014-03-25 09:21:00
5:56 AM,30.9,27.0,85,30.04,7.0,WNW,5.8,-,0.00,Snow,Light Snow,300,2014-03-25 09:56:00
6:56 AM,30.9,27.0,85,30.04,9.0,West,5.8,-,0.00,,Overcast,270,2014-03-25 10:56:00
7:56 AM,30.9,26.1,82,30.05,8.0,West,5.8,-,N/A,,Overcast,280,2014-03-25 11:56:00
8:56 AM,32.0,26.1,79,30.07,5.0,WNW,6.9,-,0.00,Snow,Light Snow,290,2014-03-25 12:56:00
9:56 AM,33.1,24.1,70,30.08,5.0,NW,11.5,-,0.00,Snow,Light Snow,310,2014-03-25 13:56:00
10:26 AM,33.8,26.6,75,30.07,2.5,WNW,12.7,-,0.00,Snow,Light Snow,300,2014-03-25 14:26:00
10:34 AM,33.8,26.6,75,30.07,3.0,West,9.2,-,0.00,Snow,Light Snow,280,2014-03-25 14:34:00
10:38 AM,33.8,26.6,75,30.07,1.8,WNW,8.1,-,0.00,Snow,Light Snow,290,2014-03-25 14:38:00
10:56 AM,34.0,27.0,75,30.09,4.0,WNW,9.2,-,0.01,Snow,Light Snow,290,2014-03-25 14:56:00
11:09 AM,33.8,26.6,75,30.07,2.0,West,11.5,-,0.00,Snow,Light Snow,280,2014-03-25 15:09:00
11:25 AM,33.8,28.4,81,30.08,1.5,WNW,12.7,-,0.00,Snow,Light Snow,290,2014-03-25 15:25:00
11:32 AM,35.6,28.4,75,30.08,4.0,West,11.5,-,0.00,Snow,Light Snow,270,2014-03-25 15:32:00
11:56 AM,35.1,27.0,72,30.09,4.0,West,11.5,-,0.00,Snow,Light Snow,280,2014-03-25 15:56:00
12:06 PM,35.6,28.4,75,30.07,2.0,West,13.8,-,0.00,Snow,Light Snow,260,2014-03-25 16:06:00
12:32 PM,33.8,28.4,81,30.07,1.0,WSW,9.2,-,0.00,Snow,Light Snow,250,2014-03-25 16:32:00
12:36 PM,33.8,28.4,81,30.07,0.8,West,6.9,-,0.00,Snow,Light Snow,260,2014-03-25 16:36:00
12:43 PM,33.8,30.2,87,30.07,0.8,WSW,9.2,-,0.00,Snow,Light Snow,250,2014-03-25 16:43:00
12:52 PM,35.6,32.0,87,30.07,1.2,WSW,11.5,-,0.00,Snow,Light Snow,250,2014-03-25 16:52:00
12:56 PM,34.0,30.0,85,30.09,1.5,West,18.4,24.2,0.00,Snow,Light Snow,260,2014-03-25 16:56:00
1:04 PM,32.0,28.4,87,30.08,2.0,WNW,20.7,29.9,0.00,Snow,Light Snow,290,2014-03-25 17:04:00
1:12 PM,33.8,28.4,81,30.08,2.0,WNW,18.4,29.9,0.00,,Haze,300,2014-03-25 17:12:00
1:16 PM,33.8,26.6,75,30.08,8.0,WNW,16.1,27.6,0.00,,Overcast,300,2014-03-25 17:16:00
1:42 PM,35.6,26.6,70,30.08,10.0,WNW,17.3,24.2,0.00,,Overcast,300,2014-03-25 17:42:00
1:56 PM,35.1,24.1,64,30.09,10.0,WNW,11.5,24.2,0.00,,Overcast,300,2014-03-25 17:56:00
2:35 PM,39.2,19.4,45,30.08,10.0,WNW,23.0,28.8,N/A,,Mostly Cloudy,290,2014-03-25 18:35:00
2:56 PM,36.0,16.0,44,30.10,10.0,WNW,25.3,32.2,N/A,,Mostly Cloudy,290,2014-03-25 18:56:00
3:56 PM,36.0,12.9,39,30.12,10.0,NW,19.6,33.4,N/A,,Mostly Cloudy,310,2014-03-25 19:56:00
4:56 PM,37.9,10.0,32,30.13,10.0,WNW,17.3,27.6,N/A,,Mostly Cloudy,300,2014-03-25 20:56:00
5:56 PM,36.0,12.9,39,30.15,10.0,WNW,15.0,27.6,N/A,,Mostly Cloudy,300,2014-03-25 21:56:00
6:56 PM,35.1,15.1,44,30.17,9.0,NW,15.0,26.5,0.00,,Scattered Clouds,310,2014-03-25 22:56:00
7:56 PM,32.0,15.1,50,30.19,10.0,NW,11.5,-,N/A,,Scattered Clouds,310,2014-03-25 23:56:00
8:56 PM,32.0,12.0,44,30.21,10.0,NW,10.4,-,N/A,,Scattered Clouds,310,2014-03-26 00:56:00
9:56 PM,30.9,12.9,47,30.23,10.0,NW,10.4,-,N/A,,Scattered Clouds,320,2014-03-26 01:56:00
10:56 PM,30.0,10.0,43,30.25,10.0,WNW,9.2,-,N/A,,Scattered Clouds,290,2014-03-26 02:56:00
11:56 PM,30.0,9.0,41,30.25,10.0,WNW,10.4,-,N/A,,Partly Cloudy,300,2014-03-26 03:56:00